User: anonymous   Login
Location: Squamish
(49.7000°N, 123.1500°W)
Time: 19:00:17
(UTC-07:00)
Language:

NOAA 19 - Orbit

View from above orbital plane
View from above orbital plane
View from above satellite
View from above satellite

Ground track
Ground track

The orbit data is extracted from the following two-line orbital elements,

1 33591U 09005A   16151.51509036  .00000127  00000-0  94233-4 0  9993
2 33591  99.0386 108.1443 0012888 269.3543  90.6152 14.12076514376648
Epoch (UTC): 30 May 2016 12:21:43
Eccentricity: 0.0012888
inclination: 99.0386°
perigee height: 843 km
apogee height: 861 km
right ascension of ascending node: 108.1443°
argument of perigee: 269.3543°
revolutions per day: 14.12076514
mean anomaly at epoch: 90.6152°
orbit number at epoch: 37664

The dashed part of the orbit path shows where the satellite is in the earth's shadow,  

DLR